Weather Roundup
Issued by NWS Chicago, IL

Home | Current Version | Previous Version | Text Only | Print | Product List | Glossary On
Versions: 1 2 3 4 5 6 7 8 9 10 11 12 13 14 15 16 17 18 19 20 21 22 23 24 25 26 27 28 29 30 31 32 33 34 35 36 37 38 39 40 41 42 43 44 45 46 47 48 49 50
000
NZUS59 KLOT 232209
HRRLOT

CHICAGO AREA WEATHER ROUNDUP
NATIONAL WEATHER SERVICE CHICAGO/ROMEOVILLE IL
500 PM CDT SAT SEP 23 2017

NOTE: "FAIR" INDICATES FEW OR NO CLOUDS BELOW 12,000 FEET WITH NO
SIGNIFICANT WEATHER AND/OR OBSTRUCTIONS TO VISIBILITY.

* THESE STATIONS ARE NOT UNDER NWS QUALITY CONTROL. THEY ALSO MAY NOT
  REPORT WEATHER SUCH AS PRECIPITATION OR FOG.

ILZ005-006-012>014-019>023-232300-
NORTHEAST ILLINOIS

CITY           SKY/WX    TMP DP  RH WIND       PRES   REMARKS
OHARE          MOSUNNY   91  64  40 E13       30.03S HX  92
MIDWAY         MOSUNNY   91  66  43 E13       30.03S HX  93
AURORA         MOSUNNY   92  64  39 SE5       30.03F HX  93
LANSING*       SUNNY     89  70  53 E9        30.04S HX  93
JOLIET*        SUNNY     94  62  34 CALM      30.02S HX  95
WAUKEGAN       SUNNY     83  68  60 SE9       30.04F HX  86
DUPAGE AIRPORT SUNNY     92  63  38 S6        30.03S HX  93
WHEELING       SUNNY     90  66  45 E9        30.05S HX  92
MORRIS*        SUNNY     92  63  37 SE7       30.01F HX  93
LEWIS AIRPORT* SUNNY     92  62  36 SE5       30.03F HX  92
NORTHERLY ISL    N/A     80  68  66 CALM        N/A  HX  83
$$

WIZ051-052-058>065-066-070>072-232300-
SOUTHEAST WISCONSIN

CITY           SKY/WX    TMP DP  RH WIND       PRES   REMARKS
MILWAUKEE      MOSUNNY   86  67  52 SE13      30.04S HX  89
KENOSHA*       SUNNY     88  65  46 SE14      30.05S HX  90
RACINE*        SUNNY     84  67  56 SE12      30.06F HX  86
WAUKESHA       MOSUNNY   90  61  37 S9        30.05F HX  89
WEST BEND        N/A     86  63  45 SE7       30.05S HX  87
$$

INZ001>003-010>013-019-020-232300-
NORTHWEST INDIANA

CITY           SKY/WX    TMP DP  RH WIND       PRES   REMARKS
GARY*          NOT AVBL
MICHIGAN CITY* NOT AVBL
RENSSELAER*    NOT AVBL
VALPARAISO     SUNNY     93  64  38 SE7       30.05S HX  94
$$

LMZ740>746-232300-
SOUTHERN LAKE MICHIGAN

STATION/POSITION TIME  SKY/WX   TEMP WIND        PRES    VSBY
                                AIR  DIR/SP/G
                 (UTC)          (F)  (DEG/KT/KT) (MB)    (MI)
HARRISON CRIB    2140            80   90/ 14/ 14   N/A
BURNHAM HARBOR   2200            80                N/A
CALUMET HARBOR   2142            79   50/  9/ 11 1016.7F
BURNS HARBOR     2202            78   70/  8/ 11 1017.9
MICHIGAN CITY    2140            77   50/ 12/ 13   N/A
$$

ABBREVIATIONS USED IN REMARKS
   TC - TEMPERATURE IN CELSIUS
  WCI - WIND CHILL INDEX
   HX - HEAT INDEX
  VSB - VISIBILITY
$$




USA.gov is the U.S. government's official web portal to all federal, state and local government web resources and services.